DW6399 Weather Reports


time (UTC)temp
F
wind
direction
speed
knots
gust
knots
rain 1hr
in
rain 24hr
in
rain mn
in
humidity
%
barometer
mb
20260505040924 36 238 3.5 11.3 0.00 0.03 0.03 88 992.8
20260505040004 36 248 3.5 12.2 0.00 0.03 0.03 89 992.8
20260505035403 36 254 3.5 12.2 0.00 0.03 0.03 89 992.9
20260505034503 36 239 3.5 9.6 0.00 0.03 0.03 89 992.8
20260505033603 36 215 3.5 9.6 0.00 0.03 0.03 89 992.8
20260505032703 36 221 1.7 9.6 0.00 0.03 0.03 90 992.7
20260505031803 36 234 1.7 9.6 0.00 0.03 0.03 90 992.6
20260505030924 36 240 1.7 7.0 0.00 0.03 0.03 90 992.5
20260505030003 36 235 2.6 8.7 0.00 0.03 0.03 90 992.6
20260505025403 36 229 2.6 8.7 0.00 0.03 0.03 90 992.7
20260505024503 36 234 2.6 10.4 0.00 0.03 0.03 90 992.6
20260505023624 36 226 2.6 8.7 0.00 0.03 0.03 91 992.6
20260505022703 36 231 2.6 13.9 0.00 0.03 0.03 91 992.6
20260505021824 36 221 2.6 12.2 0.00 0.03 0.03 91 992.6
20260505020903 36 216 1.7 9.6 0.00 0.03 0.03 91 992.5
20260505020003 36 228 2.6 10.4 0.00 0.03 0.03 91 992.7
20260505015403 36 218 3.5 10.4 0.00 0.03 0.03 91 992.7
20260505014524 36 209 2.6 11.3 0.00 0.03 0.03 91 992.7
20260505013603 36 194 1.7 7.8 0.00 0.03 0.03 91 992.6
20260505012703 36 215 1.7 7.8 0.00 0.03 0.03 91 992.6
20260505011803 36 222 3.5 14.8 0.00 0.03 0.03 91 992.7
20260505010903 36 208 2.6 8.7 0.00 0.03 0.03 91 992.8
20260505010004 36 229 2.6 10.4 0.01 0.03 0.03 91 992.8
20260505005403 36 246 2.6 10.4 0.01 0.03 0.03 91 992.7
20260505004503 36 258 2.6 11.3 0.01 0.03 0.03 91 992.5
20260505003603 36 274 2.6 8.7 0.01 0.03 0.03 91 992.5
20260505002724 36 266 3.5 10.4 0.01 0.03 0.03 91 992.5
20260505001803 36 262 3.5 13.9 0.01 0.03 0.03 91 992.6
20260505000903 36 262 3.5 13.0 0.01 0.03 0.03 90 992.6
20260505000004 36 246 4.3 15.6 0.00 0.02 0.02 90 992.3
20260504235424 36 240 3.5 15.6 0.01 0.02 0.02 90 992.4
20260504234503 36 213 2.6 7.8 0.01 0.02 0.02 91 992.3
20260504233603 35 213 1.7 8.7 0.01 0.02 0.02 91 992.4
20260504232703 35 213 1.7 6.1 0.01 0.02 0.02 90 992.5
20260504231803 35 206 0.9 3.5 0.01 0.02 0.02 90 992.5
20260504230903 35 216 0.0 0.9 0.02 0.02 0.02 89 992.6
20260504230003 34 222 0.9 3.5 0.02 0.02 0.02 89 992.7
20260504225403 34 237 0.9 3.5 0.01 0.01 0.01 88 992.7
20260504224503 34 252 0.0 1.7 0.01 0.01 0.01 87 992.9
20260504223603 34 252 0.0 1.7 0.01 0.01 0.01 87 992.9
20260504222703 35 253 0.0 1.7 0.01 0.01 0.01 86 993.0
20260504221803 35 235 0.9 3.5 0.01 0.01 0.01 84 993.1
20260504220903 36 263 1.7 5.2 0.00 0.00 0.00 80 993.2
20260504220003 38 269 1.7 7.0 0.00 0.00 0.00 75 993.3
20260504215403 38 213 0.0 1.7 0.00 0.00 0.00 72 993.2
20260504214503 38 233 0.9 2.6 0.00 0.00 0.00 71 993.0
20260504213624 39 269 0.9 5.2 0.00 0.00 0.00 69 992.9
20260504212703 39 253 1.7 5.2 0.00 0.00 0.00 68 993.0
20260504211803 39 280 5.2 8.7 0.00 0.00 0.00 66 992.9
20260504210903 39 283 5.2 10.4 0.00 0.00 0.00 64 993.0
20260504210004 39 301 7.0 13.9 0.00 0.00 0.00 63 992.9
20260504205403 39 308 7.8 13.9 0.00 0.00 0.00 63 992.9
20260504204503 40 301 7.8 13.0 0.00 0.00 0.00 63 993.1
20260504203603 40 301 7.0 13.9 0.00 0.00 0.00 62 993.2
20260504202703 40 307 5.2 11.3 0.00 0.00 0.00 63 993.1
20260504201803 40 283 4.3 7.8 0.00 0.00 0.00 63 993.3
20260504200903 40 277 6.1 13.0 0.00 0.00 0.00 62 993.6
20260504200003 40 270 3.5 9.6 0.00 0.00 0.00 63 993.8
20260504195403 40 273 2.6 7.0 0.00 0.00 0.00 64 993.8
20260504194503 41 277 3.5 7.0 0.00 0.00 0.00 63 993.1
20260504193603 41 286 3.5 8.7 0.00 0.00 0.00 63 993.3
20260504192703 42 291 3.5 8.7 0.00 0.00 0.00 61 993.2
20260504191803 43 281 4.3 9.6 0.00 0.00 0.00 59 993.5
20260504190903 44 286 5.2 10.4 0.00 0.00 0.00 58 993.6
20260504190003 45 317 5.2 9.6 0.00 0.00 0.00 57 993.4
20260504185403 46 313 5.2 10.4 0.00 0.00 0.00 57 993.5
20260504184503 46 316 5.2 10.4 0.00 0.00 0.00 57 993.6
20260504183603 46 317 3.5 7.8 0.00 0.00 0.00 57 993.6
20260504182703 46 323 5.2 9.6 0.00 0.00 0.00 56 993.6
20260504181803 47 324 7.0 11.3 0.00 0.00 0.00 55 993.6
20260504180924 47 325 7.0 11.3 0.00 0.00 0.00 54 993.5
20260504180003 48 325 7.0 11.3 0.00 0.00 0.00 53 993.6
20260504175403 48 323 6.1 10.4 0.00 0.00 0.00 53 993.7
20260504174503 48 326 7.0 10.4 0.00 0.00 0.00 53 993.8
20260504173603 49 327 6.1 10.4 0.00 0.00 0.00 52 993.7
20260504172703 49 324 5.2 8.7 0.00 0.00 0.00 52 993.7
20260504171803 50 317 6.1 10.4 0.00 0.00 0.00 50 993.8
20260504170903 50 321 6.1 10.4 0.00 0.00 0.00 48 993.9
20260504150904 56 265 4.3 10.4 0.00 0.00 0.00 37 994.8
20260504140925 55 173 3.5 7.8 0.00 0.00 0.00 39 995.5
20260504081804 50 158 5.2 9.6 0.00 0.00 0.00 42 1001.4
20260504080904 49 157 6.1 11.3 0.00 0.00 0.00 41 1001.5
20260504050004 39 151 2.6 5.2 0.00 0.00 0.00 67 1003.6
20260504045404 39 151 2.6 6.1 0.00 0.00 0.00 67 1003.8
20260504044504 38 168 2.6 6.1 0.00 0.00 0.00 69 1003.3
20260504043604 36 152 1.7 4.3 0.00 0.00 0.00 70 1003.8
20260504042704 35 157 2.6 5.2 0.00 0.00 0.00 71 1004.0